Location: Fort Wayne
(41.1310°N, 85.1290°W)
Time: 00:45:25
(UTC-04:00)

Amateur Radio Satellites - All Passes

Search period start: 31 August 2015 00:15
Search period end: 01 September 2015 00:15
Location: Fort Wayne, 41.1310°N, 85.1290°W

Satellite Date Start Highest point End Downlink Frequencies (MHz)
Time Altitude Azimuth
BUGSAT 1 31 Aug 00:15:28 00:18:00 16° 91° (E) 00:20:43 437.445
QB50P2 31 Aug 00:16:50 00:20:33 28° 95° (E) 00:24:17 145.880/145.840
NANOSAT C BR1 31 Aug 00:18:48 00:22:30 28° 95° (E) 00:26:14 145.865
VELOX 1 31 Aug 00:29:07 00:33:19 44° 261° (W) 00:37:33 145.980
QB50P1 31 Aug 00:31:43 00:35:46 40° 98° (E) 00:39:49 145.935-145.965
TIGRISAT 31 Aug 00:38:55 00:43:28 62° 286° (WNW) 00:47:52 435.000
ANTELSAT 31 Aug 00:55:43 01:00:01 40° 289° (WNW) 01:04:11 437.575/2403.000
BEESAT 3 31 Aug 01:07:25 01:11:28 78° 57° (ENE) 01:15:26 437.485
CUSAT 1 31 Aug 01:10:05 01:13:45 62° 95° (E) 01:18:41 437.405
TISAT 1 31 Aug 01:13:25 01:17:32 58° 74° (ENE) 01:21:42 437.305
BEESAT 2 31 Aug 01:17:45 01:21:50 75° 56° (NE) 01:25:50 435.950
ESTCUBE 1 31 Aug 01:20:58 01:24:06 18° 269° (W) 01:27:07 437.505/2401.250
DANDE 31 Aug 01:30:20 01:33:35 58° 95° (E) 01:37:55 436.750
BEESAT 31 Aug 01:32:14 01:35:22 18° 65° (ENE) 01:38:39 436.000
POLYITAN 1 31 Aug 01:32:38 01:36:42 40° 288° (WNW) 01:40:43 437.675
POPSAT HIP 1 31 Aug 01:35:43 01:39:44 38° 288° (WNW) 01:43:42 437.405
DUCHIFAT 1 31 Aug 01:37:13 01:41:13 38° 288° (WNW) 01:45:09 145.980
SPROUT 31 Aug 01:40:58 01:44:59 38° 263° (W) 01:49:02 437.525
CUBEBUG 1 31 Aug 01:43:57 01:45:45 12° 271° (W) 01:47:20 437.445
AUBIESAT-1 31 Aug 01:45:26 01:48:10 18° 300° (WNW) 01:50:41 437.475
AIST 2 31 Aug 01:46:27 01:50:14 32° 49° (NE) 01:53:58 435.215
RS-15 31 Aug 01:46:54 01:58:34 62° 50° (NE) 02:10:41 29.354- 29.394
Cosmos 2504 31 Aug 01:47:29 01:55:04 40° 289° (WNW) 02:02:56 435.465 / 435.565
UNISAT 6 31 Aug 01:48:25 01:50:37 13° 297° (WNW) 01:52:36 437.425
BUGSAT 1 31 Aug 01:49:40 01:53:44 44° 287° (WNW) 01:57:46 437.445
SO-50 31 Aug 01:49:46 01:54:03 34° 115° (ESE) 01:58:30 436.795
M-CUBED/EXP-1 PRIME 31 Aug 01:50:07 01:52:21 14° 302° (WNW) 01:54:22 437.505
QB50P2 31 Aug 01:52:47 01:56:21 25° 291° (WNW) 01:59:49 145.880/145.840
NANOSAT C BR1 31 Aug 01:54:41 01:58:14 25° 291° (WNW) 02:01:42 145.865
SWISSCUBE 31 Aug 01:56:45 02:00:59 33° 69° (ENE) 02:05:16 437.505
PCSat 31 Aug 02:08:02 02:12:05 23° 108° (ESE) 02:16:18 145.827
QB50P1 31 Aug 02:08:21 02:11:21 18° 293° (WNW) 02:14:15 145.935-145.965
ITUPSAT 1 31 Aug 02:34:08 02:38:53 71° 74° (ENE) 02:43:39 437.325
TISAT 1 31 Aug 02:52:09 02:53:45 12° 271° (W) 02:55:07 437.305
CUSAT 1 31 Aug 02:55:48 02:57:25 11° 305° (NW) 02:58:55 437.405
GONETS M04 31 Aug 02:59:07 03:06:23 32° 85° (E) 03:13:53
KKS-1 31 Aug 03:00:04 03:03:26 22° 67° (ENE) 03:06:55 437.445
JAS-2 31 Aug 03:06:04 03:08:22 12° 80° (E) 03:11:04 435.910
BEESAT 31 Aug 03:08:13 03:12:51 51° 260° (W) 03:17:31 436.000
Oscar 19 31 Aug 03:12:39 03:17:53 79° 102° (ESE) 03:23:05 437.125/150
AIST 2 31 Aug 03:25:14 03:28:41 25° 246° (WSW) 03:32:00 435.215
SO-50 31 Aug 03:30:16 03:34:37 32° 313° (NW) 03:39:02 436.795
SWISSCUBE 31 Aug 03:34:53 03:38:53 26° 266° (W) 03:42:49 437.505
Gurwin Techsat 1B 31 Aug 03:45:28 03:50:36 49° 99° (E) 03:55:45 435.225
PCSat 31 Aug 03:49:55 03:55:11 51° 304° (NW) 04:00:29 145.827
RS-15 31 Aug 03:59:52 04:10:47 42° 251° (WSW) 04:21:44 29.354- 29.394
ITAMSAT 1 31 Aug 04:09:15 04:14:25 67° 102° (ESE) 04:19:35 435.822/435.867
ITUPSAT 1 31 Aug 04:15:28 04:17:22 12° 272° (W) 04:18:58 437.325
STARS 31 Aug 04:19:08 04:23:32 90° 133° (SE) 04:28:01 437.465
VERMONT LUNAR 31 Aug 04:20:10 04:22:01 15° 152° (SSE) 04:23:55 437.305
AO-7 31 Aug 04:21:21 04:27:03 21° 90° (E) 04:33:07 29.400- 29.500
Cosmos 2499 31 Aug 04:30:35 04:37:43 33° 85° (E) 04:45:23 435.465 / 435.565
KKS-1 31 Aug 04:35:47 04:39:52 35° 263° (W) 04:43:59 437.445
MOZHAYETS 4 31 Aug 04:40:54 04:45:04 36° 71° (ENE) 04:49:18
JAS-2 31 Aug 04:47:48 04:54:57 81° 102° (ESE) 05:01:13 435.910
Oscar 19 31 Aug 04:53:54 04:56:39 14° 299° (WNW) 04:59:10 437.125/150
GONETS M04 31 Aug 04:54:24 05:02:53 54° 284° (WNW) 05:11:23
O/OREOS (USA 219) 31 Aug 05:18:22 05:22:22 29° 59° (ENE) 05:26:23 437.305
Gurwin Techsat 1B 31 Aug 05:26:14 05:30:17 22° 295° (WNW) 05:34:12 435.225
HORYU 2 31 Aug 05:37:53 05:42:22 68° 102° (ESE) 05:46:47 437.375
PCSat 31 Aug 05:38:56 05:40:02 10° 327° (NNW) 05:40:54 145.827
ITAMSAT 1 31 Aug 05:50:13 05:53:27 16° 298° (WNW) 05:56:29 435.822/435.867
VERMONT LUNAR 31 Aug 05:55:10 05:58:06 53° 166° (SSE) 06:01:01 437.305
AO-7 31 Aug 06:12:32 06:20:52 81° 289° (WNW) 06:29:08 29.400- 29.500
MOZHAYETS 4 31 Aug 06:18:44 06:22:25 22° 267° (W) 06:25:59
PHONESAT 2.4 31 Aug 06:21:56 06:23:58 15° 150° (SSE) 06:26:04 2401.200-2431.200
Cosmos 2499 31 Aug 06:22:15 06:30:31 55° 285° (WNW) 06:39:10 435.465 / 435.565
CUBESAT XI-V 31 Aug 06:31:57 06:36:18 45° 72° (ENE) 06:40:42 437.345
JAS-2 31 Aug 06:34:14 06:39:06 19° 303° (WNW) 06:43:24 435.910
O/OREOS (USA 219) 31 Aug 06:57:46 07:01:46 29° 256° (WSW) 07:05:40 437.305
HORYU 2 31 Aug 07:16:28 07:18:29 13° 297° (WNW) 07:20:17 437.375
Cubesat XI-IV 31 Aug 07:21:13 07:25:52 31° 95° (E) 07:30:36 437.490
PRISM 31 Aug 07:21:25 07:24:47 26° 69° (ENE) 07:28:13 437.425
VERMONT LUNAR 31 Aug 07:31:28 07:34:27 80° 186° (S) 07:37:26 437.305
STRAND 1 31 Aug 07:38:08 07:43:09 61° 73° (ENE) 07:48:12 437.568
PHONESAT 2.4 31 Aug 07:58:07 08:01:26 51° 164° (SSE) 08:04:45 2401.200-2431.200
CUTE-I 31 Aug 08:06:02 08:11:22 80° 102° (ESE) 08:16:43 437.470
AO-7 31 Aug 08:07:02 08:12:34 19° 309° (NW) 08:17:46 29.400- 29.500
CUBESAT XI-V 31 Aug 08:10:52 08:14:02 18° 269° (W) 08:17:01 437.345
YUBILEINY 31 Aug 08:21:09 08:28:53 34° 69° (ENE) 08:36:44 435.215
Cosmos 2499 31 Aug 08:24:08 08:26:19 11° 309° (NW) 08:27:49 435.465 / 435.565
PRISM 31 Aug 08:56:44 09:00:11 25° 265° (W) 09:03:32 437.425
Cubesat XI-IV 31 Aug 09:01:14 09:06:00 34° 292° (WNW) 09:10:42 437.490
BRITE-PL 31 Aug 09:06:27 09:11:55 63° 100° (E) 09:17:34 437.365/2234.400
AIST 1 31 Aug 09:07:04 09:11:16 64° 95° (E) 09:15:29
VERMONT LUNAR 31 Aug 09:07:58 09:10:44 37° 199° (SSW) 09:13:31 437.305
Cosmos 2491 31 Aug 09:09:03 09:16:18 32° 85° (E) 09:23:47 435.465 / 435.565
CINEMA 3 31 Aug 09:13:51 09:14:43 11° 85° (E) 09:15:57 145.822/145.860
STRAND 1 31 Aug 09:19:44 09:22:52 16° 271° (W) 09:25:44 437.568
CUTE 1.7 + AOD 2 31 Aug 09:26:55 09:30:03 21° 92° (E) 09:33:16 437.475
PHONESAT 2.4 31 Aug 09:35:49 09:39:13 82° 182° (S) 09:42:38 2401.200-2431.200
GOMX 1 31 Aug 09:39:23 09:44:51 77° 101° (E) 09:50:22 467.674
CANX-2 31 Aug 09:40:19 09:44:07 32° 96° (E) 09:47:55 2200.000
Cosmos 2504 31 Aug 09:43:44 09:47:45 14° 56° (NE) 09:52:15 435.465 / 435.565
CUTE-I 31 Aug 09:48:00 09:50:51 14° 299° (WNW) 09:53:28 437.470
DOVE 4 31 Aug 09:56:42 10:02:02 70° 100° (E) 10:07:18 437.250
ISS 31 Aug 09:57:27 10:00:36 48° 139° (SE) 10:03:44 145.825
SEEDS 31 Aug 10:02:59 10:06:57 41° 98° (E) 10:10:54 437.485
TIGRISAT 31 Aug 10:03:21 10:05:22 13° 63° (ENE) 10:07:37 435.000
CUSAT 1 31 Aug 10:04:20 10:07:17 13° 57° (ENE) 10:10:53 437.405
Oscar 11 31 Aug 10:06:17 10:08:10 13° 89° (E) 10:10:16 145.826/435.025
HO-68 31 Aug 10:08:52 10:16:01 62° 102° (ESE) 10:23:08 435.675
YUBILEINY 31 Aug 10:17:37 10:26:09 54° 269° (W) 10:34:33 435.215
ANTELSAT 31 Aug 10:18:47 10:22:00 19° 66° (ENE) 10:25:24 437.575/2403.000
SO-50 31 Aug 10:21:06 10:25:34 33° 47° (NE) 10:30:00 436.795
COMPASS 1 31 Aug 10:26:00 10:30:07 59° 100° (E) 10:34:11 437.405
DANDE 31 Aug 10:26:45 10:29:43 13° 59° (ENE) 10:33:25 436.750
AAUSAT CUBESAT 2 31 Aug 10:36:49 10:40:57 67° 101° (E) 10:45:02 437.432
CUBEBUG 2 31 Aug 10:42:58 10:47:23 39° 97° (E) 10:51:40 437.445
BRITE-PL 31 Aug 10:46:06 10:50:01 20° 295° (WNW) 10:53:50 437.365/2234.400
ZACube-1 31 Aug 10:46:32 10:50:10 24° 93° (E) 10:53:49 437.345
CINEMA 3 31 Aug 10:47:37 10:52:41 84° 281° (WNW) 10:57:35 145.822/145.860
AIST 1 31 Aug 10:48:20 10:49:28 11° 294° (WNW) 10:50:21
UWE-3 31 Aug 10:51:28 10:55:44 37° 96° (E) 10:59:53 435.000/436.395/437.385
POLYITAN 1 31 Aug 10:51:32 10:53:43 14° 65° (ENE) 10:56:04 437.675
FUNcube-1 31 Aug 10:52:08 10:55:56 27° 94° (E) 10:59:42 145.935
POPSAT HIP 1 31 Aug 10:54:18 10:56:34 15° 65° (ENE) 10:59:02 437.405
PCSat 31 Aug 10:55:07 10:59:11 21° 44° (NE) 11:03:21 145.827
DUCHIFAT 1 31 Aug 10:55:26 10:57:39 14° 65° (ENE) 11:00:02 145.980
AUBIESAT-1 31 Aug 10:56:01 11:00:37 53° 68° (ENE) 11:05:10 437.475
M-CUBED/EXP-1 PRIME 31 Aug 11:00:29 11:05:14 69° 71° (ENE) 11:09:59 437.505
CUTE 1.7 + AOD 2 31 Aug 11:02:15 11:06:03 32° 289° (WNW) 11:09:47 437.475
Cosmos 2491 31 Aug 11:04:18 11:12:49 55° 284° (WNW) 11:21:19 435.465 / 435.565
DELFI C3 31 Aug 11:05:57 11:09:40 37° 97° (E) 11:13:23 145.870
BUGSAT 1 31 Aug 11:07:04 11:08:16 11° 64° (ENE) 11:09:40 437.445
UNISAT 6 31 Aug 11:08:07 11:12:43 59° 74° (ENE) 11:17:23 437.425
QB50P2 31 Aug 11:10:00 11:13:15 22° 68° (ENE) 11:16:37 145.880/145.840
NANOSAT C BR1 31 Aug 11:11:35 11:14:47 22° 68° (ENE) 11:18:07 145.865
PHONESAT 2.4 31 Aug 11:13:43 11:17:00 46° 198° (SSW) 11:20:16 2401.200-2431.200
CANX-2 31 Aug 11:16:37 11:19:52 21° 292° (WNW) 11:23:00 2200.000
GOMX 1 31 Aug 11:19:07 11:22:24 16° 297° (WNW) 11:25:29 467.674
QB50P1 31 Aug 11:24:25 11:28:06 30° 70° (ENE) 11:31:53 145.935-145.965
DX 1 31 Aug 11:32:38 11:35:18 16° 91° (E) 11:38:10 434.975-435.025
Cosmos 2504 31 Aug 11:33:24 11:41:57 72° 80° (E) 11:49:58 435.465 / 435.565
ISS 31 Aug 11:34:21 11:37:08 25° 337° (NNW) 11:39:54 145.825
DOVE 4 31 Aug 11:35:53 11:39:14 17° 296° (WNW) 11:42:22 437.250
HUMSAT D 31 Aug 11:36:48 11:40:37 32° 96° (E) 11:44:23 437.325/437.525
TIGRISAT 31 Aug 11:36:54 11:41:33 73° 258° (WSW) 11:46:18 435.000
SEEDS 31 Aug 11:39:41 11:42:27 17° 293° (WNW) 11:45:04 437.485
Oscar 11 31 Aug 11:40:32 11:44:46 54° 286° (WNW) 11:48:56 145.826/435.025
CUSAT 1 31 Aug 11:43:46 11:51:23 61° 76° (ENE) 11:59:33 437.405
UKube-1 31 Aug 11:45:52 11:49:03 20° 93° (E) 11:52:19 .
50 SAT 31 Aug 11:50:06 11:52:40 17° 92° (E) 11:55:20 437.505
AISAT 31 Aug 11:51:53 11:54:52 18° 92° (E) 11:57:59 437.250
ANTELSAT 31 Aug 11:53:57 11:58:27 46° 262° (W) 12:03:01 437.575/2403.000
CUBEBUG 1 31 Aug 11:55:56 11:57:04 11° 88° (E) 11:58:29 437.445
HO-68 31 Aug 11:57:25 12:03:19 27° 300° (WNW) 12:09:00 435.675
SO-50 31 Aug 12:01:41 12:06:07 33° 245° (WSW) 12:10:23 436.795
COMPASS 1 31 Aug 12:03:34 12:05:19 12° 295° (WNW) 12:06:53 437.405
DANDE 31 Aug 12:06:47 12:14:12 63° 77° (ENE) 12:22:39 436.750
AAUSAT CUBESAT 2 31 Aug 12:14:51 12:16:03 11° 296° (WNW) 12:17:00 437.432
VELOX 1 31 Aug 12:19:30 12:23:32 33° 96° (E) 12:27:36 145.980
CUBEBUG 2 31 Aug 12:20:11 12:23:48 22° 293° (WNW) 12:27:14 437.445
ZACube-1 31 Aug 12:22:34 12:26:34 31° 290° (WNW) 12:30:25 437.345
POLYITAN 1 31 Aug 12:25:00 12:29:12 54° 260° (W) 12:33:25 437.675
CINEMA 3 31 Aug 12:27:48 12:29:06 11° 299° (WNW) 12:30:06 145.822/145.860
POPSAT HIP 1 31 Aug 12:27:54 12:32:02 51° 260° (W) 12:36:14 437.405
FUNcube-1 31 Aug 12:28:21 12:32:12 28° 291° (WNW) 12:35:55 145.935
UWE-3 31 Aug 12:28:26 12:32:01 22° 293° (WNW) 12:35:26 435.000/436.395/437.385
DUCHIFAT 1 31 Aug 12:28:55 12:33:02 52° 260° (W) 12:37:13 145.980
AUBIESAT-1 31 Aug 12:32:20 12:35:34 18° 264° (W) 12:38:37 437.475
PCSat 31 Aug 12:37:44 12:43:07 65° 245° (WSW) 12:48:28 145.827
M-CUBED/EXP-1 PRIME 31 Aug 12:37:55 12:40:27 14° 266° (W) 12:42:44 437.505
BUGSAT 1 31 Aug 12:39:12 12:43:13 64° 258° (WSW) 12:47:19 437.445
DELFI C3 31 Aug 12:41:50 12:44:28 17° 293° (WNW) 12:46:57 145.870
QB50P2 31 Aug 12:45:08 12:48:59 32° 264° (W) 12:52:49 145.880/145.840
NANOSAT C BR1 31 Aug 12:46:37 12:50:27 32° 264° (W) 12:54:17 145.865
UNISAT 6 31 Aug 12:47:20 12:49:56 14° 271° (W) 12:52:20 437.425
PHONESAT 2.4 31 Aug 12:52:43 12:54:25 13° 212° (SSW) 12:56:01 2401.200-2431.200
Oscar 19 31 Aug 12:53:03 12:55:45 15° 62° (ENE) 12:58:41 437.125/150
QB50P1 31 Aug 13:00:35 13:04:01 23° 267° (W) 13:07:22 145.935-145.965
DX 1 31 Aug 13:07:38 13:11:50 45° 288° (WNW) 13:16:00 434.975-435.025
GONETS M04 31 Aug 13:09:42 13:14:22 16° 57° (ENE) 13:19:35
ESTCUBE 1 31 Aug 13:11:49 13:16:20 86° 284° (WNW) 13:20:50 437.505/2401.250
ISS 31 Aug 13:12:43 13:14:22 13° 357° (N) 13:16:00 145.825
HUMSAT D 31 Aug 13:12:53 13:16:10 21° 292° (WNW) 13:19:19 437.325/437.525
UKube-1 31 Aug 13:21:19 13:25:18 35° 289° (WNW) 13:29:14 .
50 SAT 31 Aug 13:23:50 13:27:19 32° 289° (WNW) 13:30:43 437.505
CUSAT 1 31 Aug 13:26:57 13:33:39 31° 271° (W) 13:40:28 437.405
Cosmos 2504 31 Aug 13:26:57 13:33:21 23° 279° (W) 13:39:10 435.465 / 435.565
AISAT 31 Aug 13:27:25 13:31:40 43° 288° (WNW) 13:35:54 437.250
SPROUT 31 Aug 13:27:25 13:31:24 35° 97° (E) 13:35:23 437.525
CUBEBUG 1 31 Aug 13:29:33 13:33:57 67° 285° (WNW) 13:38:20 437.445
Gurwin Techsat 1B 31 Aug 13:31:33 13:32:30 11° 59° (ENE) 13:33:46 435.225
DANDE 31 Aug 13:50:36 13:57:06 30° 271° (W) 14:03:58 436.750
ITAMSAT 1 31 Aug 13:51:11 13:53:28 13° 61° (ENE) 13:56:00 435.822/435.867
VELOX 1 31 Aug 13:56:21 13:59:55 23° 292° (WNW) 14:03:24 145.980
Cosmos 2499 31 Aug 14:24:29 14:26:44 11° 52° (NE) 14:29:37 435.465 / 435.565
Oscar 19 31 Aug 14:29:23 14:34:33 74° 257° (WSW) 14:39:46 437.125/150
TISAT 1 31 Aug 14:33:18 14:37:35 75° 285° (WNW) 14:41:50 437.305
ITUPSAT 1 31 Aug 14:35:49 14:39:01 18° 91° (E) 14:42:22 437.325
ISS 31 Aug 14:49:20 14:51:42 19° 17° (NNE) 14:54:06 145.825
JAS-2 31 Aug 14:57:47 15:04:47 41° 66° (ENE) 15:12:02 435.910
BEESAT 3 31 Aug 15:01:25 15:03:27 14° 111° (ESE) 15:05:41 437.485
SPROUT 31 Aug 15:03:57 15:07:16 21° 293° (WNW) 15:10:29 437.525
GONETS M04 31 Aug 15:04:15 15:13:05 77° 81° (E) 15:21:56
Gurwin Techsat 1B 31 Aug 15:06:25 15:11:41 77° 76° (ENE) 15:17:02 435.225
BEESAT 31 Aug 15:08:26 15:12:54 40° 98° (E) 15:17:22 436.000
BEESAT 2 31 Aug 15:12:47 15:14:50 14° 111° (ESE) 15:17:04 435.950
AO-7 31 Aug 15:20:10 15:27:08 32° 58° (ENE) 15:34:16 29.400- 29.500
ITAMSAT 1 31 Aug 15:27:11 15:32:22 82° 259° (WSW) 15:37:34 435.822/435.867
SWISSCUBE 31 Aug 15:34:07 15:38:55 81° 105° (ESE) 15:43:39 437.505
STARS 31 Aug 16:10:01 16:12:50 17° 91° (E) 16:15:46 437.465
RS-15 31 Aug 16:11:51 16:21:09 36° 107° (ESE) 16:31:00 29.354- 29.394
ITUPSAT 1 31 Aug 16:12:37 16:17:12 46° 288° (WNW) 16:21:43 437.325
Cosmos 2499 31 Aug 16:13:50 16:22:24 59° 76° (ENE) 16:30:25 435.465 / 435.565
ISS 31 Aug 16:25:15 16:28:30 82° 35° (NE) 16:31:45 145.825
KKS-1 31 Aug 16:26:31 16:30:48 42° 99° (E) 16:35:04 437.445
HORYU 2 31 Aug 16:35:44 16:40:10 62° 74° (ENE) 16:44:37 437.375
BEESAT 3 31 Aug 16:37:01 16:40:59 53° 306° (NW) 16:45:00 437.485
JAS-2 31 Aug 16:42:25 16:49:42 45° 264° (W) 16:57:10 435.910
BEESAT 31 Aug 16:46:50 16:50:31 22° 294° (WNW) 16:54:06 436.000
BEESAT 2 31 Aug 16:48:27 16:52:28 54° 306° (NW) 16:56:31 435.950
Gurwin Techsat 1B 31 Aug 16:49:54 16:52:23 13° 273° (W) 16:54:33 435.225
GONETS M04 31 Aug 17:02:39 17:09:06 22° 279° (W) 17:15:09
AO-7 31 Aug 17:11:15 17:19:31 62° 257° (WSW) 17:27:46 29.400- 29.500
SWISSCUBE 31 Aug 17:14:19 17:16:10 12° 298° (WNW) 17:17:45 437.505
AIST 2 31 Aug 17:21:53 17:26:05 68° 120° (ESE) 17:30:19 435.215
STARS 31 Aug 17:45:16 17:49:32 45° 288° (WNW) 17:53:45 437.465
CUTE-I 31 Aug 17:50:19 17:53:38 18° 63° (ENE) 17:57:09 437.470
ISS 31 Aug 18:03:36 18:04:30 11° 230° (SW) 18:05:15 145.825
KKS-1 31 Aug 18:03:55 18:07:08 19° 294° (WNW) 18:10:13 437.445
Cosmos 2499 31 Aug 18:07:50 18:15:03 30° 276° (W) 18:21:40 435.465 / 435.565
MOZHAYETS 4 31 Aug 18:12:36 18:17:12 87° 103° (ESE) 18:21:44
HORYU 2 31 Aug 18:15:14 18:17:17 12° 271° (W) 18:19:05 437.375
RS-15 31 Aug 18:22:00 18:32:55 66° 309° (NW) 18:44:16 29.354- 29.394
CUBESAT XI-V 31 Aug 18:30:53 18:32:11 11° 87° (E) 18:33:47 437.345
Cubesat XI-IV 31 Aug 18:43:03 18:48:11 51° 71° (ENE) 18:53:20 437.490
AIST 2 31 Aug 19:02:26 19:05:07 16° 319° (NW) 19:07:43 435.215
AIST 1 31 Aug 19:15:12 19:17:51 16° 69° (ENE) 19:20:40
Cosmos 2491 31 Aug 19:19:49 19:24:20 15° 57° (ENE) 19:29:25 435.465 / 435.565
CUTE-I 31 Aug 19:27:59 19:33:16 64° 259° (WSW) 19:38:33 437.470
O/OREOS (USA 219) 31 Aug 19:30:34 19:34:33 32° 105° (ESE) 19:38:37 437.305
STRAND 1 31 Aug 19:49:32 19:53:14 21° 92° (E) 19:57:05 437.568
MOZHAYETS 4 31 Aug 19:53:11 19:53:47 10° 298° (WNW) 19:54:08
CUBESAT XI-V 31 Aug 20:05:35 20:10:13 71° 284° (WNW) 20:14:51 437.345
CINEMA 3 31 Aug 20:16:15 20:16:59 10° 60° (ENE) 20:18:01 145.822/145.860
BRITE-PL 31 Aug 20:17:47 20:22:04 64° 75° (ENE) 20:26:44 437.365/2234.400
CUTE 1.7 + AOD 2 31 Aug 20:20:23 20:22:57 16° 66° (ENE) 20:25:41 437.475
Cubesat XI-IV 31 Aug 20:24:41 20:28:38 20° 269° (W) 20:32:25 437.490
CANX-2 31 Aug 20:33:23 20:36:49 24° 69° (ENE) 20:40:20 2200.000
HO-68 31 Aug 20:37:14 20:43:56 46° 66° (ENE) 20:50:44 435.675
PRISM 31 Aug 20:38:05 20:41:58 41° 98° (E) 20:45:53 437.425
RS-15 31 Aug 20:39:10 20:48:12 26° 339° (NNW) 20:57:22 29.354- 29.394
GOMX 1 31 Aug 20:47:37 20:52:05 77° 77° (ENE) 20:56:56 467.674
AIST 1 31 Aug 20:51:40 20:55:47 42° 267° (W) 20:59:52
SEEDS 31 Aug 20:54:57 20:58:37 29° 71° (ENE) 21:02:21 437.485
DOVE 4 31 Aug 21:02:04 21:06:37 65° 74° (ENE) 21:11:30 437.250
Oscar 11 31 Aug 21:02:14 21:03:27 11° 63° (ENE) 21:04:53 145.826/435.025
O/OREOS (USA 219) 31 Aug 21:10:10 21:14:01 26° 303° (WNW) 21:17:50 437.305
Cosmos 2491 31 Aug 21:14:18 21:23:05 76° 80° (E) 21:31:53 435.465 / 435.565
COMPASS 1 31 Aug 21:16:54 21:20:49 40° 72° (ENE) 21:24:46 437.405
YUBILEINY 31 Aug 21:22:09 21:29:54 38° 87° (E) 21:37:52 435.215
AAUSAT CUBESAT 2 31 Aug 21:27:12 21:31:10 43° 73° (ENE) 21:35:10 437.432
STRAND 1 31 Aug 21:27:50 21:32:44 47° 289° (WNW) 21:37:35 437.568
CUBEBUG 2 31 Aug 21:40:50 21:44:58 33° 70° (ENE) 21:49:15 437.445
ZACube-1 31 Aug 21:42:33 21:45:53 21° 67° (ENE) 21:49:22 437.345
FUNcube-1 31 Aug 21:47:49 21:51:20 23° 68° (ENE) 21:54:58 145.935
UWE-3 31 Aug 21:48:17 21:52:17 31° 70° (ENE) 21:56:27 435.000/436.395/437.385
CINEMA 3 31 Aug 21:48:43 21:53:24 87° 77° (ENE) 21:58:20 145.822/145.860
DELFI C3 31 Aug 21:53:11 21:56:24 24° 69° (ENE) 21:59:42 145.870
CUTE 1.7 + AOD 2 31 Aug 21:54:24 21:58:32 46° 262° (W) 22:02:40 437.475
BRITE-PL 31 Aug 21:59:45 22:01:20 11° 275° (W) 22:02:40 437.365/2234.400
CANX-2 31 Aug 22:08:52 22:12:38 29° 265° (W) 22:16:22 2200.000
PRISM 31 Aug 22:14:26 22:17:07 17° 294° (WNW) 22:19:40 437.425
HO-68 31 Aug 22:25:23 22:31:50 34° 264° (W) 22:38:13 435.675
HUMSAT D 31 Aug 22:28:32 22:31:58 24° 69° (ENE) 22:35:29 437.325/437.525
DX 1 31 Aug 22:28:50 22:31:14 15° 64° (ENE) 22:33:47 434.975-435.025
GOMX 1 31 Aug 22:30:44 22:31:04 10° 276° (W) 22:31:04 467.674
SEEDS 31 Aug 22:30:58 22:34:26 23° 266° (W) 22:37:48 437.485
Oscar 11 31 Aug 22:34:45 22:39:05 73° 258° (WSW) 22:43:27 145.826/435.025
50 SAT 31 Aug 22:35:11 22:36:11 11° 65° (ENE) 22:37:23 437.505
UKube-1 31 Aug 22:41:05 22:43:57 18° 66° (ENE) 22:46:57 .
DOVE 4 31 Aug 22:42:52 22:45:02 13° 274° (W) 22:46:59 437.250
AISAT 31 Aug 22:50:05 22:52:49 17° 65° (ENE) 22:55:42 437.250
COMPASS 1 31 Aug 22:53:51 22:56:41 17° 269° (W) 22:59:22 437.405
RS-15 31 Aug 22:57:22 23:05:57 23° 14° (NNE) 23:15:00 29.354- 29.394
UNISAT 6 31 Aug 23:02:23 23:04:09 12° 87° (E) 23:06:09 437.425
AAUSAT CUBESAT 2 31 Aug 23:04:27 23:07:01 15° 270° (W) 23:09:26 437.432
Cosmos 2491 31 Aug 23:12:43 23:19:08 22° 279° (W) 23:25:10 435.465 / 435.565
VELOX 1 31 Aug 23:17:07 23:20:55 30° 69° (ENE) 23:24:47 145.980
ZACube-1 31 Aug 23:17:42 23:21:59 39° 263° (W) 23:26:18 437.345
CUBEBUG 2 31 Aug 23:17:50 23:21:43 25° 267° (W) 23:25:34 437.445
YUBILEINY 31 Aug 23:18:11 23:26:36 47° 286° (WNW) 23:35:01 435.215
BEESAT 3 31 Aug 23:19:22 23:20:47 12° 38° (NE) 23:22:20 437.485
FUNcube-1 31 Aug 23:23:16 23:27:27 36° 264° (W) 23:31:40 145.935
UWE-3 31 Aug 23:24:55 23:28:49 26° 267° (W) 23:32:43 435.000/436.395/437.385
DELFI C3 31 Aug 23:27:54 23:31:22 26° 265° (W) 23:34:47 145.870
TIGRISAT 31 Aug 23:29:30 23:33:09 24° 93° (E) 23:36:48 435.000
BEESAT 2 31 Aug 23:31:16 23:32:45 12° 38° (NE) 23:34:22 435.950
ANTELSAT 31 Aug 23:46:10 23:50:24 37° 97° (E) 23:54:32 437.575/2403.000
DX 1 01 Sep 00:02:51 00:07:05 52° 260° (W) 00:11:21 434.975-435.025
HUMSAT D 01 Sep 00:03:44 00:07:34 30° 264° (W) 00:11:23 437.325/437.525
50 SAT 01 Sep 00:06:19 00:10:14 61° 259° (W) 00:14:11 437.505
